Time,TemperatureF,DewpointF,PressureIn,WindDirection,WindDirectionDegrees,WindSpeedMPH,WindSpeedGustMPH,Humidity,HourlyPrecipIn,Conditions,Clouds,dailyrainin,SoftwareType,DateUTC
2013-05-24 00:00:00,62.5,61.6,29.73,WNW,284,0.0,1.0,97,0.00,,OVC100,0.49,VWS V14.01,2013-05-24 04:00:00,
2013-05-24 00:01:00,62.5,61.6,29.73,WNW,284,0.0,0.0,97,0.00,,OVC006,0.00,VWS V14.01,2013-05-24 04:01:00,
2013-05-24 00:06:00,62.4,61.5,29.73,WNW,283,0.0,0.0,97,0.00,,OVC006,0.00,VWS V14.01,2013-05-24 04:06:00,
2013-05-24 00:11:00,62.4,61.5,29.73,WNW,284,0.0,0.0,97,0.00,,OVC006,0.00,VWS V14.01,2013-05-24 04:11:00,
2013-05-24 00:16:00,62.4,61.5,29.73,WNW,284,0.0,0.0,97,0.00,,OVC006,0.00,VWS V14.01,2013-05-24 04:16:00,
2013-05-24 00:21:00,62.4,61.5,29.72,NNE,21,0.0,0.0,97,0.00,,OVC006,0.00,VWS V14.01,2013-05-24 04:21:00,
2013-05-24 00:26:00,62.3,61.4,29.72,NNE,21,0.0,0.0,97,0.00,,OVC006,0.00,VWS V14.01,2013-05-24 04:26:00,
2013-05-24 00:31:00,62.4,61.5,29.72,NNE,21,0.0,0.0,97,0.00,,OVC006,0.00,VWS V14.01,2013-05-24 04:31:00,
2013-05-24 00:36:00,62.4,61.8,29.72,NNE,21,0.0,0.0,98,0.00,,OVC006,0.00,VWS V14.01,2013-05-24 04:36:00,
2013-05-24 00:41:00,62.4,61.5,29.72,NNW,328,0.0,0.0,97,0.00,,OVC006,0.00,VWS V14.01,2013-05-24 04:41:00,
2013-05-24 00:46:00,62.4,61.5,29.73,NNW,328,0.0,0.0,97,0.00,,OVC006,0.00,VWS V14.01,2013-05-24 04:46:00,
2013-05-24 00:51:00,62.3,61.4,29.73,NNW,327,0.0,0.0,97,0.00,,OVC006,0.00,VWS V14.01,2013-05-24 04:51:00,
2013-05-24 00:56:00,62.3,61.4,29.72,NNW,328,0.0,0.0,97,0.00,,OVC006,0.00,VWS V14.01,2013-05-24 04:56:00,
2013-05-24 01:01:00,62.3,61.4,29.72,NNW,327,0.0,0.0,97,0.00,,OVC006,0.00,VWS V14.01,2013-05-24 05:01:00,
2013-05-24 01:06:00,62.2,61.3,29.72,NNW,328,0.0,0.0,97,0.00,,OVC006,0.00,VWS V14.01,2013-05-24 05:06:00,
2013-05-24 01:11:00,62.3,61.7,29.72,NNW,328,0.0,0.0,98,0.00,,OVC006,0.00,VWS V14.01,2013-05-24 05:11:00,
2013-05-24 01:16:00,62.2,61.6,29.72,NNW,328,0.0,0.0,98,0.00,,OVC006,0.00,VWS V14.01,2013-05-24 05:16:00,
2013-05-24 01:21:00,62.3,61.7,29.72,NNW,327,0.0,0.0,98,0.00,,OVC006,0.00,VWS V14.01,2013-05-24 05:21:00,
2013-05-24 01:26:00,62.4,61.8,29.72,NNW,328,0.0,0.0,98,0.00,,OVC006,0.00,VWS V14.01,2013-05-24 05:26:00,
2013-05-24 01:31:00,62.4,61.8,29.72,NNW,327,0.0,0.0,98,0.00,,OVC006,0.00,VWS V14.01,2013-05-24 05:31:00,
2013-05-24 01:36:00,62.5,61.9,29.72,NNW,328,0.0,0.0,98,0.00,,OVC006,0.00,VWS V14.01,2013-05-24 05:36:00,
2013-05-24 01:41:00,62.5,61.9,29.71,NNW,328,0.0,0.0,98,0.00,,OVC006,0.00,VWS V14.01,2013-05-24 05:41:00,
2013-05-24 01:46:00,62.6,62.0,29.71,NNW,327,0.0,0.0,98,0.00,,OVC006,0.00,VWS V14.01,2013-05-24 05:46:00,
2013-05-24 01:51:00,62.6,62.0,29.71,NNW,328,0.0,0.0,98,0.00,,OVC006,0.00,VWS V14.01,2013-05-24 05:51:00,
2013-05-24 01:56:00,62.6,62.0,29.71,WNW,287,0.0,0.0,98,0.00,,OVC006,0.00,VWS V14.01,2013-05-24 05:56:00,
2013-05-24 02:01:00,62.6,62.0,29.71,WNW,286,0.0,0.0,98,0.00,,OVC012,0.00,VWS V14.01,2013-05-24 06:01:00,
2013-05-24 02:06:00,62.7,62.1,29.71,WNW,283,2.0,3.0,98,0.00,,OVC012,0.00,VWS V14.01,2013-05-24 06:06:00,
2013-05-24 02:11:00,62.7,62.1,29.71,WNW,290,1.0,5.0,98,0.00,,OVC012,0.00,VWS V14.01,2013-05-24 06:11:00,
2013-05-24 02:16:00,62.7,61.8,29.71,West,278,3.0,5.0,97,0.00,,OVC012,0.00,VWS V14.01,2013-05-24 06:16:00,
2013-05-24 02:21:00,62.7,61.8,29.70,West,279,2.0,5.0,97,0.00,,OVC012,0.00,VWS V14.01,2013-05-24 06:21:00,
2013-05-24 02:26:00,62.7,61.8,29.70,WNW,286,6.0,8.0,97,0.00,,OVC012,0.00,VWS V14.01,2013-05-24 06:26:00,
2013-05-24 02:31:00,62.8,61.9,29.70,WNW,285,3.0,6.0,97,0.00,,,0.00,VWS V14.01,2013-05-24 06:31:00,
2013-05-24 02:36:00,62.7,61.8,29.70,WNW,293,2.0,6.0,97,0.00,,,0.00,VWS V14.01,2013-05-24 06:36:00,
2013-05-24 02:41:00,62.8,61.9,29.70,WNW,290,3.0,7.0,97,0.00,,,0.00,VWS V14.01,2013-05-24 06:41:00,
2013-05-24 02:46:00,62.7,61.8,29.70,WNW,293,4.0,7.0,97,0.00,,,0.00,VWS V14.01,2013-05-24 06:46:00,
2013-05-24 02:51:00,62.7,61.8,29.70,WNW,284,5.0,7.0,97,0.00,,,0.00,VWS V14.01,2013-05-24 06:51:00,
2013-05-24 02:56:00,62.7,61.8,29.70,WNW,283,5.0,9.0,97,0.00,,,0.00,VWS V14.01,2013-05-24 06:56:00,
2013-05-24 03:01:00,62.7,61.8,29.70,WNW,290,2.0,6.0,97,0.00,,,0.00,VWS V14.01,2013-05-24 07:01:00,
2013-05-24 03:06:00,62.6,61.5,29.69,WNW,286,3.0,8.0,96,0.00,,,0.00,VWS V14.01,2013-05-24 07:06:00,
2013-05-24 03:11:00,62.6,61.5,29.69,WNW,284,5.0,8.0,96,0.00,,,0.00,VWS V14.01,2013-05-24 07:11:00,
2013-05-24 03:16:00,62.6,61.5,29.70,WNW,284,2.0,8.0,96,0.00,,,0.00,VWS V14.01,2013-05-24 07:16:00,
2013-05-24 03:21:00,62.6,61.5,29.70,WNW,284,2.0,8.0,96,0.00,,,0.00,VWS V14.01,2013-05-24 07:21:00,
2013-05-24 03:26:00,62.5,61.3,29.70,WNW,287,7.0,8.0,96,0.00,,,0.00,VWS V14.01,2013-05-24 07:26:00,
2013-05-24 03:31:00,62.4,61.2,29.70,WNW,295,6.0,8.0,96,0.00,,,0.00,VWS V14.01,2013-05-24 07:31:00,
2013-05-24 03:36:00,62.4,61.2,29.70,WNW,293,3.0,8.0,96,0.01,,,0.01,VWS V14.01,2013-05-24 07:36:00,
2013-05-24 03:41:00,62.4,61.2,29.70,WNW,302,7.0,9.0,96,0.01,,,0.01,VWS V14.01,2013-05-24 07:41:00,
2013-05-24 03:46:00,62.4,61.2,29.70,WNW,288,8.0,11.0,96,0.01,,,0.01,VWS V14.01,2013-05-24 07:46:00,
2013-05-24 03:51:00,62.4,61.2,29.70,NW,307,8.0,11.0,96,0.01,,,0.01,VWS V14.01,2013-05-24 07:51:00,
2013-05-24 03:56:00,62.4,61.2,29.71,NE,37,2.0,11.0,96,0.01,,,0.01,VWS V14.01,2013-05-24 07:56:00,
2013-05-24 04:01:00,60.9,58.3,29.72,NNE,23,10.0,16.0,91,0.01,,-RA,0.01,VWS V14.01,2013-05-24 08:01:00,
2013-05-24 04:06:00,59.5,56.3,29.72,NNE,30,13.0,20.0,89,0.01,,-RA,0.01,VWS V14.01,2013-05-24 08:06:00,
2013-05-24 04:11:00,58.7,55.8,29.73,NNE,27,6.0,20.0,90,0.01,,-RA,0.01,VWS V14.01,2013-05-24 08:11:00,
2013-05-24 04:16:00,58.2,55.3,29.73,NE,37,4.0,20.0,90,0.01,,-RA,0.01,VWS V14.01,2013-05-24 08:16:00,
2013-05-24 04:21:00,57.6,54.4,29.74,West,270,2.0,20.0,89,0.01,,-RA,0.01,VWS V14.01,2013-05-24 08:21:00,
2013-05-24 04:26:00,57.0,53.8,29.75,WNW,300,8.0,20.0,89,0.01,,-RA,0.01,VWS V14.01,2013-05-24 08:26:00,
2013-05-24 04:31:00,56.4,52.9,29.76,NE,42,3.0,5.0,88,0.01,,-RA,0.01,VWS V14.01,2013-05-24 08:31:00,
2013-05-24 04:36:00,56.1,52.6,29.76,WNW,295,7.0,10.0,88,0.01,,-RA,0.01,VWS V14.01,2013-05-24 08:36:00,
2013-05-24 04:41:00,56.0,52.8,29.77,WNW,285,12.0,12.0,89,0.01,,-RA,0.01,VWS V14.01,2013-05-24 08:41:00,
2013-05-24 04:46:00,55.5,52.0,29.77,NNE,31,2.0,13.0,88,0.01,,-RA,0.01,VWS V14.01,2013-05-24 08:46:00,
2013-05-24 04:51:00,55.2,51.7,29.77,NE,34,1.0,13.0,88,0.01,,-RA,0.01,VWS V14.01,2013-05-24 08:51:00,
2013-05-24 04:56:00,54.9,51.7,29.78,NNE,12,6.0,13.0,89,0.01,,-RA,0.01,VWS V14.01,2013-05-24 08:56:00,
2013-05-24 05:01:00,54.3,50.5,29.78,West,276,1.0,2.0,87,0.00,,-RA,0.01,VWS V14.01,2013-05-24 09:01:00,
2013-05-24 05:06:00,54.1,50.6,29.79,NNW,335,0.0,8.0,88,0.00,,-RA,0.01,VWS V14.01,2013-05-24 09:06:00,
2013-05-24 05:11:00,53.7,49.9,29.79,WNW,298,1.0,10.0,87,0.00,,-RA,0.01,VWS V14.01,2013-05-24 09:11:00,
2013-05-24 05:16:00,53.2,49.4,29.80,NNW,348,6.0,10.0,87,0.00,,-RA,0.01,VWS V14.01,2013-05-24 09:16:00,
2013-05-24 05:21:00,52.6,48.5,29.81,NW,325,4.0,14.0,86,0.00,,-RA,0.01,VWS V14.01,2013-05-24 09:21:00,
2013-05-24 05:26:00,52.0,48.0,29.82,NNE,33,1.0,14.0,86,0.00,,-RA,0.01,VWS V14.01,2013-05-24 09:26:00,
2013-05-24 05:31:00,51.5,48.1,29.82,North,350,2.0,6.0,88,0.00,,-RA,0.01,VWS V14.01,2013-05-24 09:31:00,
2013-05-24 05:36:00,51.1,48.3,29.82,WNW,300,3.0,6.0,90,0.01,,-RA,0.02,VWS V14.01,2013-05-24 09:36:00,
2013-05-24 05:41:00,50.7,47.9,29.83,NNE,24,2.0,8.0,90,0.01,,-RA,0.02,VWS V14.01,2013-05-24 09:41:00,
2013-05-24 05:46:00,50.5,48.3,29.83,WNW,286,0.0,8.0,92,0.02,,-RA,0.03,VWS V14.01,2013-05-24 09:46:00,
2013-05-24 05:51:00,50.4,48.5,29.84,WNW,295,4.0,8.0,93,0.02,,-RA,0.03,VWS V14.01,2013-05-24 09:51:00,
2013-05-24 05:56:00,50.1,48.2,29.84,WNW,284,5.0,8.0,93,0.03,,-RA,0.04,VWS V14.01,2013-05-24 09:56:00,
2013-05-24 06:01:00,49.7,47.5,29.85,WNW,294,4.0,5.0,92,0.03,,-RA,0.04,VWS V14.01,2013-05-24 10:01:00,
2013-05-24 06:06:00,49.3,47.1,29.85,WNW,295,3.0,7.0,92,0.03,,-RA,0.04,VWS V14.01,2013-05-24 10:06:00,
2013-05-24 06:11:00,48.8,46.3,29.86,NNW,333,1.0,11.0,91,0.03,,-RA,0.04,VWS V14.01,2013-05-24 10:11:00,
2013-05-24 06:16:00,48.5,46.0,29.86,NW,311,1.0,11.0,91,0.03,,-RA,0.04,VWS V14.01,2013-05-24 10:16:00,
2013-05-24 06:21:00,48.2,46.0,29.87,NNE,27,2.0,11.0,92,0.03,,-RA,0.04,VWS V14.01,2013-05-24 10:21:00,
2013-05-24 06:26:00,48.1,45.9,29.87,WNW,291,5.0,11.0,92,0.03,,-RA,0.04,VWS V14.01,2013-05-24 10:26:00,
2013-05-24 06:31:00,47.9,45.7,29.88,NW,323,7.0,7.0,92,0.03,,-RA,0.04,VWS V14.01,2013-05-24 10:31:00,
2013-05-24 06:36:00,47.8,45.6,29.88,NNW,333,1.0,7.0,92,0.04,,-RA,0.05,VWS V14.01,2013-05-24 10:36:00,
2013-05-24 06:41:00,47.7,45.8,29.88,North,8,0.0,7.0,93,0.04,,-RA,0.05,VWS V14.01,2013-05-24 10:41:00,
2013-05-24 06:46:00,47.5,45.3,29.89,West,278,2.0,8.0,92,0.04,,-RA,0.05,VWS V14.01,2013-05-24 10:46:00,
2013-05-24 06:51:00,47.5,45.3,29.89,WNW,290,5.0,8.0,92,0.04,,-RA,0.05,VWS V14.01,2013-05-24 10:51:00,
2013-05-24 06:56:00,47.6,45.1,29.89,NNW,344,3.0,8.0,91,0.04,,-RA,0.05,VWS V14.01,2013-05-24 10:56:00,
2013-05-24 07:01:00,47.6,44.8,29.89,NNW,330,3.0,5.0,90,0.01,,-RA,0.05,VWS V14.01,2013-05-24 11:01:00,
2013-05-24 07:06:00,47.6,44.8,29.89,North,9,1.0,8.0,90,0.01,,-RA,0.05,VWS V14.01,2013-05-24 11:06:00,
2013-05-24 07:11:00,47.5,44.4,29.90,NNW,338,0.0,8.0,89,0.01,,-RA,0.05,VWS V14.01,2013-05-24 11:11:00,
2013-05-24 07:16:00,47.4,44.0,29.90,North,359,3.0,8.0,88,0.01,,-RA,0.05,VWS V14.01,2013-05-24 11:16:00,
2013-05-24 07:21:00,47.2,43.5,29.90,NNE,17,5.0,8.0,87,0.01,,-RA,0.05,VWS V14.01,2013-05-24 11:21:00,
2013-05-24 07:26:00,47.1,42.8,29.91,WNW,288,1.0,9.0,85,0.01,,-RA,0.05,VWS V14.01,2013-05-24 11:26:00,
2013-05-24 07:31:00,47.0,43.0,29.91,West,278,5.0,6.0,86,0.01,,-RA,0.05,VWS V14.01,2013-05-24 11:31:00,
2013-05-24 07:36:00,46.9,42.9,29.91,NW,308,1.0,7.0,86,0.01,,-RA,0.05,VWS V14.01,2013-05-24 11:36:00,
2013-05-24 07:41:00,46.8,42.8,29.92,NW,324,2.0,7.0,86,0.02,,-RA,0.06,VWS V14.01,2013-05-24 11:41:00,
2013-05-24 07:46:00,46.8,42.8,29.92,West,270,3.0,8.0,86,0.02,,-RA,0.06,VWS V14.01,2013-05-24 11:46:00,
2013-05-24 07:51:00,46.7,42.7,29.93,North,6,2.0,9.0,86,0.02,,-RA,0.06,VWS V14.01,2013-05-24 11:51:00,
2013-05-24 07:56:00,46.6,42.3,29.93,NE,43,2.0,10.0,85,0.02,,-RA,0.06,VWS V14.01,2013-05-24 11:56:00,
2013-05-24 08:01:00,46.5,41.9,29.93,WNW,295,3.0,9.0,84,0.01,,RA,0.06,VWS V14.01,2013-05-24 12:01:00,
2013-05-24 08:06:00,46.3,42.0,29.93,WNW,297,6.0,9.0,85,0.01,,RA,0.06,VWS V14.01,2013-05-24 12:06:00,
2013-05-24 08:11:00,46.2,41.6,29.94,North,360,2.0,10.0,84,0.01,,RA,0.06,VWS V14.01,2013-05-24 12:11:00,
2013-05-24 08:16:00,46.2,42.2,29.94,NNE,19,2.0,10.0,86,0.01,,RA,0.06,VWS V14.01,2013-05-24 12:16:00,
2013-05-24 08:21:00,46.1,41.8,29.94,WNW,302,2.0,10.0,85,0.01,,RA,0.06,VWS V14.01,2013-05-24 12:21:00,
2013-05-24 08:26:00,46.1,41.8,29.95,NW,305,1.0,10.0,85,0.01,,RA,0.06,VWS V14.01,2013-05-24 12:26:00,
2013-05-24 08:31:00,45.9,41.3,29.95,North,11,2.0,4.0,84,0.02,,RA,0.07,VWS V14.01,2013-05-24 12:31:00,
2013-05-24 08:36:00,45.8,41.5,29.95,NNW,342,2.0,8.0,85,0.02,,RA,0.07,VWS V14.01,2013-05-24 12:36:00,
2013-05-24 08:41:00,45.8,42.2,29.95,WNW,298,0.0,8.0,87,0.02,,RA,0.07,VWS V14.01,2013-05-24 12:41:00,
2013-05-24 08:46:00,45.8,41.9,29.96,WNW,286,0.0,9.0,86,0.02,,RA,0.07,VWS V14.01,2013-05-24 12:46:00,
2013-05-24 08:51:00,45.7,42.1,29.96,North,354,3.0,9.0,87,0.02,,RA,0.07,VWS V14.01,2013-05-24 12:51:00,
2013-05-24 08:56:00,45.5,41.9,29.96,NW,307,3.0,9.0,87,0.02,,RA,0.07,VWS V14.01,2013-05-24 12:56:00,
2013-05-24 09:01:00,45.5,42.2,29.96,WNW,297,2.0,4.0,88,0.02,,-RA,0.08,VWS V14.01,2013-05-24 13:01:00,
2013-05-24 09:06:00,45.4,42.1,29.96,WNW,302,5.0,6.0,88,0.02,,-RA,0.08,VWS V14.01,2013-05-24 13:06:00,
2013-05-24 09:11:00,45.4,42.1,29.97,WNW,284,3.0,6.0,88,0.03,,-RA,0.09,VWS V14.01,2013-05-24 13:11:00,
2013-05-24 09:16:00,45.7,42.7,29.97,WNW,290,6.0,7.0,89,0.03,,-RA,0.09,VWS V14.01,2013-05-24 13:16:00,
2013-05-24 09:21:00,45.6,42.0,29.97,West,281,2.0,9.0,87,0.03,,-RA,0.09,VWS V14.01,2013-05-24 13:21:00,
2013-05-24 09:26:00,45.5,41.9,29.97,North,350,0.0,9.0,87,0.03,,-RA,0.09,VWS V14.01,2013-05-24 13:26:00,
2013-05-24 09:31:00,45.6,42.3,29.97,WNW,293,0.0,3.0,88,0.02,,-RA,0.09,VWS V14.01,2013-05-24 13:31:00,
2013-05-24 09:36:00,45.7,42.4,29.98,NW,314,2.0,6.0,88,0.02,,-RA,0.09,VWS V14.01,2013-05-24 13:36:00,
2013-05-24 09:41:00,45.7,42.4,29.97,WNW,283,2.0,9.0,88,0.03,,-RA,0.10,VWS V14.01,2013-05-24 13:41:00,
2013-05-24 09:46:00,45.5,42.2,29.98,NE,43,1.0,9.0,88,0.03,,-RA,0.10,VWS V14.01,2013-05-24 13:46:00,
2013-05-24 09:51:00,45.5,42.5,29.98,NNE,18,0.0,9.0,89,0.04,,-RA,0.11,VWS V14.01,2013-05-24 13:51:00,
2013-05-24 09:56:00,45.7,42.9,29.98,NE,36,2.0,9.0,90,0.04,,-RA,0.11,VWS V14.01,2013-05-24 13:56:00,
2013-05-24 10:01:00,45.9,43.1,29.98,NE,42,3.0,4.0,90,0.03,,-RA,0.11,VWS V14.01,2013-05-24 14:01:00,
2013-05-24 10:06:00,45.9,42.8,29.98,NNE,27,1.0,5.0,89,0.03,,-RA,0.11,VWS V14.01,2013-05-24 14:06:00,
2013-05-24 10:11:00,45.9,42.0,29.99,WNW,286,8.0,11.0,86,0.03,,-RA,0.11,VWS V14.01,2013-05-24 14:11:00,
2013-05-24 10:16:00,45.9,41.7,29.99,WNW,294,5.0,14.0,85,0.03,,-RA,0.11,VWS V14.01,2013-05-24 14:16:00,
2013-05-24 10:21:00,46.1,41.8,29.99,SW,236,4.0,14.0,85,0.03,,-RA,0.11,VWS V14.01,2013-05-24 14:21:00,
2013-05-24 10:26:00,46.3,41.7,29.99,West,260,1.0,14.0,84,0.03,,-RA,0.11,VWS V14.01,2013-05-24 14:26:00,
2013-05-24 10:31:00,46.5,41.6,29.99,NE,55,2.0,9.0,83,0.02,,RA,0.11,VWS V14.01,2013-05-24 14:31:00,
2013-05-24 10:36:00,46.7,42.1,29.99,NE,36,2.0,10.0,84,0.02,,RA,0.11,VWS V14.01,2013-05-24 14:36:00,
2013-05-24 10:41:00,47.1,42.5,29.99,WNW,290,2.0,10.0,84,0.02,,RA,0.11,VWS V14.01,2013-05-24 14:41:00,
2013-05-24 10:46:00,47.5,43.2,29.99,NE,40,2.0,10.0,85,0.02,,RA,0.11,VWS V14.01,2013-05-24 14:46:00,
2013-05-24 10:51:00,47.5,41.7,29.99,North,349,4.0,10.0,80,0.02,,RA,0.11,VWS V14.01,2013-05-24 14:51:00,
2013-05-24 10:56:00,47.6,42.4,29.99,North,359,9.0,10.0,82,0.02,,RA,0.11,VWS V14.01,2013-05-24 14:56:00,
2013-05-24 11:01:00,47.9,41.7,29.99,NE,34,2.0,7.0,79,0.00,,OVC033,0.11,VWS V14.01,2013-05-24 15:01:00,
2013-05-24 11:06:00,48.6,43.0,29.99,NNE,30,3.0,9.0,81,0.00,,OVC033,0.11,VWS V14.01,2013-05-24 15:06:00,
2013-05-24 11:11:00,48.9,42.7,29.99,WNW,283,3.0,9.0,79,0.00,,OVC033,0.11,VWS V14.01,2013-05-24 15:11:00,
2013-05-24 11:16:00,49.2,42.6,29.99,NE,35,1.0,9.0,78,0.00,,OVC033,0.11,VWS V14.01,2013-05-24 15:16:00,
2013-05-24 11:21:00,49.4,42.5,29.99,NNE,28,2.0,9.0,77,0.00,,OVC033,0.11,VWS V14.01,2013-05-24 15:21:00,
2013-05-24 11:26:00,49.2,42.0,29.99,WNW,298,1.0,9.0,76,0.00,,OVC033,0.11,VWS V14.01,2013-05-24 15:26:00,
2013-05-24 11:31:00,49.6,42.4,29.99,WNW,293,4.0,11.0,76,0.00,,OVC065,0.11,VWS V14.01,2013-05-24 15:31:00,
2013-05-24 11:36:00,50.0,42.7,29.99,NNE,32,0.0,11.0,76,0.00,,OVC065,0.11,VWS V14.01,2013-05-24 15:36:00,
2013-05-24 11:41:00,50.5,42.9,29.99,WNW,293,3.0,11.0,75,0.00,,OVC065,0.11,VWS V14.01,2013-05-24 15:41:00,
2013-05-24 11:46:00,50.6,41.9,29.99,NE,53,3.0,11.0,72,0.00,,OVC065,0.11,VWS V14.01,2013-05-24 15:46:00,
2013-05-24 11:51:00,50.5,42.2,29.99,NE,40,2.0,11.0,73,0.00,,OVC065,0.11,VWS V14.01,2013-05-24 15:51:00,
2013-05-24 11:56:00,50.8,41.8,29.99,West,280,4.0,12.0,71,0.00,,OVC065,0.11,VWS V14.01,2013-05-24 15:56:00,
2013-05-24 12:01:00,50.9,41.1,29.99,NNW,342,3.0,8.0,69,0.00,,OVC055,0.11,VWS V14.01,2013-05-24 16:01:00,
2013-05-24 12:06:00,51.4,40.8,29.99,NNE,31,7.0,13.0,67,0.00,,OVC055,0.11,VWS V14.01,2013-05-24 16:06:00,
2013-05-24 12:11:00,51.8,42.0,29.99,North,3,7.0,16.0,69,0.00,,OVC055,0.11,VWS V14.01,2013-05-24 16:11:00,
2013-05-24 12:16:00,52.4,42.2,29.98,NNW,330,3.0,18.0,68,0.00,,OVC055,0.11,VWS V14.01,2013-05-24 16:16:00,
2013-05-24 12:21:00,52.4,41.4,29.99,NNE,18,9.0,18.0,66,0.00,,OVC055,0.11,VWS V14.01,2013-05-24 16:21:00,
2013-05-24 12:26:00,52.4,41.4,29.99,NNE,23,3.0,18.0,66,0.00,,OVC055,0.11,VWS V14.01,2013-05-24 16:26:00,
2013-05-24 12:31:00,52.6,41.6,29.99,WNW,295,3.0,8.0,66,0.00,,OVC055,0.11,VWS V14.01,2013-05-24 16:31:00,
2013-05-24 12:36:00,52.6,41.6,29.99,NNW,330,5.0,13.0,66,0.00,,OVC055,0.11,VWS V14.01,2013-05-24 16:36:00,
2013-05-24 12:41:00,52.3,41.7,29.99,SW,233,9.0,13.0,67,0.00,,OVC055,0.11,VWS V14.01,2013-05-24 16:41:00,
2013-05-24 12:46:00,52.3,41.7,29.99,WNW,297,10.0,13.0,67,0.00,,OVC055,0.11,VWS V14.01,2013-05-24 16:46:00,
2013-05-24 12:51:00,52.2,41.6,29.99,North,1,10.0,13.0,67,0.00,,OVC055,0.11,VWS V14.01,2013-05-24 16:51:00,
2013-05-24 12:56:00,52.2,40.4,29.99,NNE,25,11.0,16.0,64,0.00,,OVC055,0.11,VWS V14.01,2013-05-24 16:56:00,
2013-05-24 13:01:00,51.9,40.5,30.00,East,91,5.0,9.0,65,0.00,,OVC036,0.11,VWS V14.01,2013-05-24 17:01:00,
2013-05-24 13:06:00,52.2,40.4,30.00,NE,45,3.0,13.0,64,0.00,,OVC036,0.11,VWS V14.01,2013-05-24 17:06:00,
2013-05-24 13:11:00,52.4,40.2,29.99,North,5,11.0,13.0,63,0.00,,OVC036,0.11,VWS V14.01,2013-05-24 17:11:00,
2013-05-24 13:16:00,52.5,40.3,29.99,NNE,14,9.0,13.0,63,0.00,,OVC036,0.11,VWS V14.01,2013-05-24 17:16:00,
2013-05-24 13:21:00,52.7,40.5,29.99,North,6,4.0,13.0,63,0.00,,OVC036,0.11,VWS V14.01,2013-05-24 17:21:00,
2013-05-24 13:26:00,52.6,39.5,30.00,WNW,294,6.0,19.0,61,0.00,,OVC036,0.11,VWS V14.01,2013-05-24 17:26:00,
2013-05-24 13:31:00,52.5,39.5,30.00,NNE,19,5.0,10.0,61,0.00,,OVC036,0.11,VWS V14.01,2013-05-24 17:31:00,
2013-05-24 13:36:00,52.7,40.9,30.00,WNW,296,2.0,15.0,64,0.00,,OVC036,0.11,VWS V14.01,2013-05-24 17:36:00,
2013-05-24 13:41:00,52.8,41.0,30.00,WNW,288,5.0,15.0,64,0.00,,OVC036,0.11,VWS V14.01,2013-05-24 17:41:00,
2013-05-24 13:46:00,52.5,41.1,30.00,WNW,285,5.0,15.0,65,0.00,,OVC036,0.11,VWS V14.01,2013-05-24 17:46:00,
2013-05-24 13:51:00,52.7,40.9,30.00,WSW,255,6.0,15.0,64,0.00,,OVC036,0.11,VWS V14.01,2013-05-24 17:51:00,
2013-05-24 13:56:00,52.7,40.9,30.00,North,359,4.0,15.0,64,0.00,,OVC036,0.11,VWS V14.01,2013-05-24 17:56:00,
2013-05-24 14:01:00,52.5,39.9,30.00,North,349,5.0,14.0,62,0.00,,OVC042,0.11,VWS V14.01,2013-05-24 18:01:00,
2013-05-24 14:06:00,52.7,41.3,30.00,NNE,30,6.0,14.0,65,0.00,,OVC042,0.11,VWS V14.01,2013-05-24 18:06:00,
2013-05-24 14:11:00,52.9,41.5,30.00,WNW,295,1.0,14.0,65,0.00,,OVC042,0.11,VWS V14.01,2013-05-24 18:11:00,
2013-05-24 14:16:00,52.8,41.0,30.01,NNW,342,6.0,14.0,64,0.00,,OVC042,0.11,VWS V14.01,2013-05-24 18:16:00,
2013-05-24 14:21:00,52.6,40.8,30.01,NNE,20,15.0,15.0,64,0.00,,OVC042,0.11,VWS V14.01,2013-05-24 18:21:00,
2013-05-24 14:26:00,52.4,40.2,30.01,NNE,29,4.0,15.0,63,0.00,,OVC042,0.11,VWS V14.01,2013-05-24 18:26:00,
2013-05-24 14:31:00,52.4,40.6,30.01,NNW,342,5.0,12.0,64,0.00,,OVC042,0.11,VWS V14.01,2013-05-24 18:31:00,
2013-05-24 14:36:00,52.3,40.5,30.01,NNW,340,2.0,12.0,64,0.00,,OVC042,0.11,VWS V14.01,2013-05-24 18:36:00,
2013-05-24 14:40:00,52.5,41.1,30.01,NNW,345,4.0,12.0,65,0.00,,OVC042,0.11,VWS V14.01,2013-05-24 18:40:00,
2013-05-24 14:45:00,52.8,41.0,30.01,WNW,288,3.0,12.0,64,0.00,,OVC042,0.11,VWS V14.01,2013-05-24 18:45:00,
2013-05-24 14:50:00,52.8,40.6,30.01,North,353,13.0,13.0,63,0.00,,OVC042,0.11,VWS V14.01,2013-05-24 18:50:00,
2013-05-24 14:55:00,52.6,40.8,30.01,NNW,342,3.0,13.0,64,0.00,,OVC042,0.11,VWS V14.01,2013-05-24 18:55:00,
2013-05-24 15:00:00,52.5,39.9,30.01,NNE,30,9.0,12.0,62,0.00,,OVC041,0.11,VWS V14.01,2013-05-24 19:00:00,
2013-05-24 15:05:00,52.5,39.9,30.02,NNW,336,6.0,12.0,62,0.00,,OVC041,0.11,VWS V14.01,2013-05-24 19:05:00,
2013-05-24 15:10:00,52.7,40.1,30.01,WNW,290,5.0,12.0,62,0.00,,OVC041,0.11,VWS V14.01,2013-05-24 19:10:00,
2013-05-24 15:15:00,53.1,40.0,30.01,NNE,29,11.0,13.0,61,0.00,,OVC041,0.11,VWS V14.01,2013-05-24 19:15:00,
2013-05-24 15:20:00,53.0,40.3,30.01,NNE,18,1.0,13.0,62,0.00,,OVC041,0.11,VWS V14.01,2013-05-24 19:20:00,
2013-05-24 15:25:00,53.2,41.0,30.02,NW,317,3.0,13.0,63,0.00,,OVC041,0.11,VWS V14.01,2013-05-24 19:25:00,
2013-05-24 15:30:00,53.3,41.0,30.02,NNE,30,5.0,5.0,63,0.00,,OVC041,0.11,VWS V14.01,2013-05-24 19:30:00,
2013-05-24 15:35:00,53.3,40.2,30.02,NNE,25,11.0,12.0,61,0.00,,OVC041,0.11,VWS V14.01,2013-05-24 19:35:00,
2013-05-24 15:40:00,52.8,39.7,30.02,NNE,15,13.0,16.0,61,0.00,,OVC041,0.11,VWS V14.01,2013-05-24 19:40:00,
2013-05-24 15:45:00,52.5,39.9,30.02,WNW,302,9.0,16.0,62,0.00,,OVC041,0.11,VWS V14.01,2013-05-24 19:45:00,
2013-05-24 15:50:00,52.4,40.2,30.03,NE,47,3.0,16.0,63,0.00,,OVC041,0.11,VWS V14.01,2013-05-24 19:50:00,
2013-05-24 15:55:00,52.3,40.1,30.03,West,270,6.0,16.0,63,0.00,,OVC041,0.11,VWS V14.01,2013-05-24 19:55:00,
2013-05-24 16:00:00,52.2,40.8,30.03,NW,322,12.0,12.0,65,0.00,,OVC041,0.11,VWS V14.01,2013-05-24 20:00:00,
2013-05-24 16:05:00,52.0,39.8,30.03,NE,41,3.0,15.0,63,0.00,,OVC041,0.11,VWS V14.01,2013-05-24 20:05:00,
2013-05-24 16:10:00,51.4,39.7,30.04,NE,56,6.0,15.0,64,0.00,,OVC041,0.11,VWS V14.01,2013-05-24 20:10:00,
2013-05-24 16:15:00,51.0,40.1,30.04,West,278,2.0,17.0,66,0.00,,OVC041,0.11,VWS V14.01,2013-05-24 20:15:00,
2013-05-24 16:20:00,50.7,39.8,30.04,West,270,2.0,17.0,66,0.00,,OVC041,0.11,VWS V14.01,2013-05-24 20:20:00,
2013-05-24 16:25:00,50.5,39.6,30.04,West,264,4.0,17.0,66,0.00,,OVC041,0.11,VWS V14.01,2013-05-24 20:25:00,
2013-05-24 16:30:00,50.4,39.5,30.04,NW,322,3.0,8.0,66,0.00,,OVC041,0.11,VWS V14.01,2013-05-24 20:30:00,
2013-05-24 16:35:00,50.3,39.4,30.04,WNW,295,5.0,12.0,66,0.00,,OVC041,0.11,VWS V14.01,2013-05-24 20:35:00,
2013-05-24 16:40:00,50.4,39.9,30.04,NNE,27,4.0,12.0,67,0.00,,OVC041,0.11,VWS V14.01,2013-05-24 20:40:00,
2013-05-24 16:45:00,50.1,39.2,30.05,NNE,32,5.0,16.0,66,0.00,,OVC041,0.11,VWS V14.01,2013-05-24 20:45:00,
2013-05-24 16:50:00,50.0,39.5,30.05,WNW,283,8.0,16.0,67,0.00,,OVC041,0.11,VWS V14.01,2013-05-24 20:50:00,
2013-05-24 16:55:00,49.7,38.8,30.05,NW,306,5.0,19.0,66,0.00,,OVC041,0.11,VWS V14.01,2013-05-24 20:55:00,
2013-05-24 17:00:00,49.6,39.1,30.06,WNW,293,8.0,8.0,67,0.00,,OVC039,0.11,VWS V14.01,2013-05-24 21:00:00,
2013-05-24 17:05:00,49.4,38.9,30.06,NNE,20,2.0,17.0,67,0.00,,OVC039,0.11,VWS V14.01,2013-05-24 21:05:00,
2013-05-24 17:10:00,49.0,38.9,30.07,ESE,113,4.0,18.0,68,0.00,,OVC039,0.11,VWS V14.01,2013-05-24 21:10:00,
2013-05-24 17:15:00,48.8,38.7,30.07,North,355,4.0,18.0,68,0.00,,OVC039,0.11,VWS V14.01,2013-05-24 21:15:00,
2013-05-24 17:20:00,48.7,38.6,30.07,NW,305,6.0,18.0,68,0.00,,OVC039,0.11,VWS V14.01,2013-05-24 21:20:00,
2013-05-24 17:25:00,48.5,38.1,30.07,NNE,25,11.0,18.0,67,0.00,,OVC039,0.11,VWS V14.01,2013-05-24 21:25:00,
2013-05-24 17:30:00,48.3,38.2,30.07,NW,305,2.0,6.0,68,0.00,,OVC039,0.11,VWS V14.01,2013-05-24 21:30:00,
2013-05-24 17:35:00,48.1,38.0,30.07,West,281,2.0,14.0,68,0.00,,OVC039,0.11,VWS V14.01,2013-05-24 21:35:00,
2013-05-24 17:40:00,48.1,38.4,30.07,NNE,15,9.0,14.0,69,0.00,,OVC039,0.11,VWS V14.01,2013-05-24 21:40:00,
2013-05-24 17:45:00,48.0,38.3,30.07,NE,39,7.0,14.0,69,0.00,,OVC039,0.11,VWS V14.01,2013-05-24 21:45:00,
2013-05-24 17:50:00,47.9,38.2,30.07,WNW,297,5.0,17.0,69,0.00,,OVC039,0.11,VWS V14.01,2013-05-24 21:50:00,
2013-05-24 17:55:00,47.9,38.6,30.07,West,280,6.0,17.0,70,0.00,,OVC039,0.11,VWS V14.01,2013-05-24 21:55:00,
2013-05-24 18:00:00,47.9,38.2,30.08,NNE,18,5.0,5.0,69,0.00,,OVC033,0.11,VWS V14.01,2013-05-24 22:00:00,
2013-05-24 18:05:00,47.8,38.5,30.08,NE,39,6.0,9.0,70,0.00,,OVC033,0.11,VWS V14.01,2013-05-24 22:05:00,
2013-05-24 18:10:00,47.8,38.5,30.08,NW,318,2.0,10.0,70,0.00,,OVC033,0.11,VWS V14.01,2013-05-24 22:10:00,
2013-05-24 18:15:00,47.9,39.0,30.08,NNE,14,6.0,11.0,71,0.00,,OVC033,0.11,VWS V14.01,2013-05-24 22:15:00,
2013-05-24 18:20:00,47.6,39.0,30.08,NNW,339,5.0,13.0,72,0.00,,OVC033,0.11,VWS V14.01,2013-05-24 22:20:00,
2013-05-24 18:25:00,47.3,39.5,30.08,West,281,6.0,13.0,74,0.00,,OVC033,0.11,VWS V14.01,2013-05-24 22:25:00,
2013-05-24 18:30:00,47.2,40.0,30.09,WNW,288,2.0,4.0,76,0.00,,OVC033,0.11,VWS V14.01,2013-05-24 22:30:00,
2013-05-24 18:35:00,47.0,40.2,30.09,WNW,293,4.0,11.0,77,0.00,,OVC033,0.11,VWS V14.01,2013-05-24 22:35:00,
2013-05-24 18:40:00,46.7,40.5,30.09,WNW,297,3.0,11.0,79,0.00,,OVC033,0.11,VWS V14.01,2013-05-24 22:40:00,
2013-05-24 18:45:00,46.4,40.2,30.09,WNW,284,6.0,13.0,79,0.00,,OVC033,0.11,VWS V14.01,2013-05-24 22:45:00,
2013-05-24 18:50:00,46.3,40.2,30.10,NW,312,2.0,13.0,79,0.00,,OVC033,0.11,VWS V14.01,2013-05-24 22:50:00,
2013-05-24 18:55:00,46.2,40.1,30.10,NW,318,1.0,17.0,79,0.00,,OVC033,0.11,VWS V14.01,2013-05-24 22:55:00,
2013-05-24 19:00:00,46.2,40.1,30.10,WSW,240,6.0,17.0,79,0.00,,OVC031,0.11,VWS V14.01,2013-05-24 23:00:00,
2013-05-24 19:05:00,46.3,39.8,30.10,NE,39,1.0,10.0,78,0.00,,OVC031,0.11,VWS V14.01,2013-05-24 23:05:00,
2013-05-24 19:10:00,46.3,39.8,30.10,NW,322,5.0,11.0,78,0.00,,OVC031,0.11,VWS V14.01,2013-05-24 23:10:00,
2013-05-24 19:15:00,46.3,39.5,30.10,WNW,286,4.0,11.0,77,0.00,,OVC031,0.11,VWS V14.01,2013-05-24 23:15:00,
2013-05-24 19:20:00,46.4,39.6,30.10,West,279,1.0,13.0,77,0.00,,OVC031,0.11,VWS V14.01,2013-05-24 23:20:00,
2013-05-24 19:25:00,46.5,40.0,30.10,WNW,295,2.0,13.0,78,0.00,,OVC031,0.11,VWS V14.01,2013-05-24 23:25:00,
2013-05-24 19:30:00,46.5,39.7,30.10,NNW,333,0.0,0.0,77,0.00,,OVC029,0.11,VWS V14.01,2013-05-24 23:30:00,
2013-05-24 19:35:00,46.5,39.4,30.10,North,349,8.0,11.0,76,0.00,,OVC029,0.11,VWS V14.01,2013-05-24 23:35:00,
2013-05-24 19:40:00,46.6,39.5,30.10,West,279,1.0,11.0,76,0.00,,OVC029,0.11,VWS V14.01,2013-05-24 23:40:00,
2013-05-24 19:45:00,46.6,39.5,30.10,WNW,286,4.0,11.0,76,0.00,,OVC029,0.11,VWS V14.01,2013-05-24 23:45:00,
2013-05-24 19:50:00,46.7,39.5,30.11,NNE,23,2.0,11.0,76,0.00,,OVC029,0.11,VWS V14.01,2013-05-24 23:50:00,
2013-05-24 19:55:00,46.7,39.2,30.11,WNW,291,2.0,11.0,75,0.00,,OVC029,0.11,VWS V14.01,2013-05-24 23:55:00,
2013-05-24 20:00:00,46.8,39.3,30.11,WNW,301,1.0,11.0,75,0.00,,OVC029,0.11,VWS V14.01,2013-05-25 00:00:00,
2013-05-24 20:05:00,46.8,39.3,30.12,NW,313,2.0,6.0,75,0.00,,OVC029,0.11,VWS V14.01,2013-05-25 00:05:00,
2013-05-24 20:10:00,46.8,39.3,30.11,North,360,1.0,6.0,75,0.00,,OVC029,0.11,VWS V14.01,2013-05-25 00:10:00,
2013-05-24 20:15:00,46.9,39.1,30.11,WNW,287,0.0,6.0,74,0.00,,OVC029,0.11,VWS V14.01,2013-05-25 00:15:00,
2013-05-24 20:20:00,46.9,39.1,30.11,NW,314,2.0,9.0,74,0.00,,OVC029,0.11,VWS V14.01,2013-05-25 00:20:00,
2013-05-24 20:25:00,46.9,39.1,30.11,WNW,284,0.0,9.0,74,0.00,,OVC029,0.11,VWS V14.01,2013-05-25 00:25:00,
2013-05-24 20:30:00,47.0,39.5,30.11,NNW,329,1.0,1.0,75,0.00,,OVC031,0.11,VWS V14.01,2013-05-25 00:30:00,
2013-05-24 20:35:00,47.0,39.2,30.11,WNW,295,3.0,5.0,74,0.00,,OVC031,0.11,VWS V14.01,2013-05-25 00:35:00,
2013-05-24 20:40:00,47.0,39.2,30.11,NW,319,3.0,5.0,74,0.00,,OVC031,0.11,VWS V14.01,2013-05-25 00:40:00,
2013-05-24 20:45:00,47.1,39.2,30.11,NW,311,4.0,6.0,74,0.00,,OVC031,0.11,VWS V14.01,2013-05-25 00:45:00,
2013-05-24 20:50:00,47.2,39.3,30.11,WNW,300,1.0,6.0,74,0.00,,OVC031,0.11,VWS V14.01,2013-05-25 00:50:00,
2013-05-24 20:55:00,47.2,39.0,30.11,WNW,293,2.0,6.0,73,0.00,,OVC031,0.11,VWS V14.01,2013-05-25 00:55:00,
2013-05-24 21:00:00,47.2,39.0,30.11,WNW,302,2.0,6.0,73,0.00,,OVC048,0.11,VWS V14.01,2013-05-25 01:00:00,
2013-05-24 21:05:00,47.3,39.1,30.11,WNW,287,4.0,9.0,73,0.00,,OVC048,0.11,VWS V14.01,2013-05-25 01:05:00,
2013-05-24 21:10:00,47.3,39.1,30.11,NW,304,6.0,9.0,73,0.00,,OVC048,0.11,VWS V14.01,2013-05-25 01:10:00,
2013-05-24 21:15:00,47.3,39.1,30.11,SSW,197,5.0,9.0,73,0.00,,OVC048,0.11,VWS V14.01,2013-05-25 01:15:00,
2013-05-24 21:20:00,47.3,39.1,30.11,WNW,298,4.0,9.0,73,0.00,,OVC048,0.11,VWS V14.01,2013-05-25 01:20:00,
2013-05-24 21:25:00,47.4,39.2,30.11,West,268,3.0,9.0,73,0.00,,OVC048,0.11,VWS V14.01,2013-05-25 01:25:00,
2013-05-24 21:30:00,47.5,38.9,30.11,WNW,294,4.0,9.0,72,0.00,,OVC048,0.11,VWS V14.01,2013-05-25 01:30:00,
2013-05-24 21:35:00,47.5,38.9,30.11,WNW,284,6.0,10.0,72,0.00,,OVC048,0.11,VWS V14.01,2013-05-25 01:35:00,
2013-05-24 21:40:00,47.6,39.0,30.11,West,262,11.0,11.0,72,0.00,,OVC048,0.11,VWS V14.01,2013-05-25 01:40:00,
2013-05-24 21:45:00,47.6,38.7,30.11,NNE,27,6.0,12.0,71,0.00,,OVC048,0.11,VWS V14.01,2013-05-25 01:45:00,
2013-05-24 21:50:00,47.7,38.8,30.11,West,281,3.0,12.0,71,0.00,,OVC048,0.11,VWS V14.01,2013-05-25 01:50:00,
2013-05-24 21:55:00,47.7,38.8,30.12,WNW,302,6.0,12.0,71,0.00,,OVC048,0.11,VWS V14.01,2013-05-25 01:55:00,
2013-05-24 22:00:00,47.7,38.4,30.12,WNW,297,5.0,12.0,70,0.00,,OVC060,0.11,VWS V14.01,2013-05-25 02:00:00,
2013-05-24 22:05:00,47.7,38.4,30.12,NW,304,4.0,12.0,70,0.00,,OVC060,0.11,VWS V14.01,2013-05-25 02:05:00,
2013-05-24 22:10:00,47.7,38.4,30.12,NNW,333,3.0,12.0,70,0.00,,OVC060,0.11,VWS V14.01,2013-05-25 02:10:00,
2013-05-24 22:15:00,47.7,38.4,30.12,NW,325,5.0,12.0,70,0.00,,OVC060,0.11,VWS V14.01,2013-05-25 02:15:00,
2013-05-24 22:20:00,47.7,38.4,30.12,WSW,253,2.0,12.0,70,0.00,,OVC060,0.11,VWS V14.01,2013-05-25 02:20:00,
2013-05-24 22:25:00,47.6,38.3,30.12,NW,304,5.0,12.0,70,0.00,,OVC060,0.11,VWS V14.01,2013-05-25 02:25:00,
2013-05-24 22:30:00,47.6,38.3,30.12,WNW,290,4.0,12.0,70,0.00,,OVC060,0.11,VWS V14.01,2013-05-25 02:30:00,
2013-05-24 22:35:00,47.5,38.2,30.12,WNW,285,6.0,10.0,70,0.00,,OVC060,0.11,VWS V14.01,2013-05-25 02:35:00,
2013-05-24 22:40:00,47.5,38.6,30.12,NW,306,4.0,10.0,71,0.00,,OVC060,0.11,VWS V14.01,2013-05-25 02:40:00,
2013-05-24 22:45:00,47.5,38.2,30.12,WNW,293,2.0,10.0,70,0.00,,OVC060,0.11,VWS V14.01,2013-05-25 02:45:00,
2013-05-24 22:50:00,47.4,38.5,30.12,WNW,286,3.0,10.0,71,0.00,,OVC060,0.11,VWS V14.01,2013-05-25 02:50:00,
2013-05-24 22:55:00,47.3,38.4,30.11,WNW,297,4.0,10.0,71,0.00,,OVC060,0.11,VWS V14.01,2013-05-25 02:55:00,
2013-05-24 23:00:00,47.3,38.4,30.12,WNW,284,6.0,10.0,71,0.00,,OVC060,0.11,VWS V14.01,2013-05-25 03:00:00,
2013-05-24 23:05:00,47.3,38.4,30.11,WNW,297,2.0,9.0,71,0.00,,OVC060,0.11,VWS V14.01,2013-05-25 03:05:00,
2013-05-24 23:10:00,47.3,38.4,30.12,WNW,290,4.0,9.0,71,0.00,,OVC060,0.11,VWS V14.01,2013-05-25 03:10:00,
2013-05-24 23:15:00,47.2,38.3,30.12,WNW,283,3.0,9.0,71,0.00,,OVC060,0.11,VWS V14.01,2013-05-25 03:15:00,
2013-05-24 23:20:00,47.2,38.7,30.12,WNW,295,5.0,9.0,72,0.00,,OVC060,0.11,VWS V14.01,2013-05-25 03:20:00,
2013-05-24 23:25:00,47.2,38.3,30.12,WNW,285,6.0,9.0,71,0.00,,OVC060,0.11,VWS V14.01,2013-05-25 03:25:00,
2013-05-24 23:30:00,47.2,38.3,30.12,WNW,291,3.0,9.0,71,0.00,,OVC055,0.11,VWS V14.01,2013-05-25 03:30:00,
2013-05-24 23:35:00,47.2,38.3,30.12,WNW,287,5.0,7.0,71,0.00,,OVC055,0.11,VWS V14.01,2013-05-25 03:35:00,
2013-05-24 23:40:00,47.2,38.3,30.12,WNW,287,2.0,8.0,71,0.00,,OVC055,0.11,VWS V14.01,2013-05-25 03:40:00,
2013-05-24 23:45:00,47.2,38.3,30.12,WNW,295,3.0,9.0,71,0.00,,OVC055,0.11,VWS V14.01,2013-05-25 03:45:00,
2013-05-24 23:50:00,47.2,38.7,30.12,WNW,293,3.0,9.0,72,0.00,,OVC055,0.11,VWS V14.01,2013-05-25 03:50:00,
2013-05-24 23:55:00,47.1,38.5,30.12,WNW,297,3.0,9.0,72,0.00,,OVC055,0.11,VWS V14.01,2013-05-25 03:55:00,